| time (UTC) | temp F | wind direction | speed knots | gust knots | rain 1hr in | rain 24hr in | rain mn in | humidity % | barometer mb |
| 20260505080139 | 53 | 182 | 2.6 | 5.2 | 0.00 | 0.00 | 0.00 | 81 | 1008.8 |
| 20260505074655 | 53 | 141 | 3.5 | 6.1 | 0.00 | 0.00 | 0.00 | 81 | 1008.8 |
| 20260505073150 | 53 | 218 | 3.5 | 6.1 | 0.00 | 0.00 | 0.00 | 81 | 1008.8 |
| 20260505071644 | 53 | 223 | 4.3 | 8.7 | 0.00 | 0.00 | 0.00 | 82 | 1008.9 |
| 20260505070143 | 53 | 175 | 3.5 | 7.8 | 0.00 | 0.00 | 0.00 | 81 | 1008.9 |
| 20260505064633 | 54 | 175 | 2.6 | 6.1 | 0.00 | 0.00 | 0.00 | 79 | 1008.8 |
| 20260505063149 | 54 | 137 | 2.6 | 7.8 | 0.00 | 0.00 | 0.00 | 78 | 1008.9 |
| 20260505061647 | 54 | 153 | 2.6 | 6.1 | 0.00 | 0.00 | 0.00 | 77 | 1009.0 |
| 20260505060143 | 54 | 157 | 3.5 | 8.7 | 0.00 | 0.00 | 0.00 | 77 | 1009.0 |
| 20260505054635 | 55 | 219 | 2.6 | 7.8 | 0.00 | 0.00 | 0.00 | 76 | 1008.8 |
| 20260505053150 | 55 | 207 | 3.5 | 8.7 | 0.00 | 0.00 | 0.00 | 75 | 1008.7 |
| 20260505051643 | 55 | 192 | 4.3 | 7.8 | 0.00 | 0.00 | 0.00 | 75 | 1008.9 |
| 20260505050134 | 55 | 191 | 3.5 | 11.3 | 0.00 | 0.00 | 0.00 | 74 | 1009.0 |
| 20260505041635 | 56 | 184 | 3.5 | 7.8 | 0.00 | 0.00 | 0.00 | 73 | 1009.1 |
| 20260505040209 | 56 | 167 | 3.5 | 6.1 | 0.00 | 0.00 | 0.00 | 72 | 1009.0 |
| 20260505034647 | 56 | 113 | 3.5 | 7.0 | 0.00 | 0.00 | 0.00 | 70 | 1009.0 |
| 20260505033136 | 57 | 133 | 4.3 | 8.7 | 0.00 | 0.00 | 0.00 | 69 | 1008.9 |
| 20260505031712 | 57 | 149 | 4.3 | 8.7 | 0.00 | 0.00 | 0.00 | 68 | 1008.9 |
| 20260505030206 | 57 | 148 | 3.5 | 7.8 | 0.00 | 0.00 | 0.00 | 67 | 1009.0 |
| 20260505024635 | 57 | 175 | 4.3 | 8.7 | 0.00 | 0.00 | 0.00 | 65 | 1008.9 |
| 20260505023151 | 58 | 141 | 4.3 | 8.7 | 0.00 | 0.00 | 0.00 | 64 | 1009.0 |
| 20260505021647 | 58 | 167 | 4.3 | 8.7 | 0.00 | 0.00 | 0.00 | 64 | 1009.0 |
| 20260505020202 | 57 | 199 | 2.6 | 8.7 | 0.00 | 0.00 | 0.00 | 65 | 1008.9 |
| 20260505014634 | 58 | 227 | 3.5 | 9.6 | 0.00 | 0.00 | 0.00 | 64 | 1008.8 |
| 20260505013140 | 58 | 192 | 5.2 | 9.6 | 0.00 | 0.00 | 0.00 | 65 | 1008.6 |
| 20260505011658 | 59 | 146 | 5.2 | 9.6 | 0.00 | 0.00 | 0.00 | 63 | 1008.3 |
| 20260505010150 | 58 | 164 | 5.2 | 7.8 | 0.00 | 0.00 | 0.00 | 64 | 1008.1 |
| 20260505004637 | 59 | 296 | 7.0 | 11.3 | 0.00 | 0.00 | 0.00 | 62 | 1007.8 |
| 20260505003152 | 60 | 136 | 5.2 | 13.0 | 0.00 | 0.00 | 0.00 | 58 | 1007.5 |
| 20260505001643 | 60 | 121 | 8.7 | 14.8 | 0.00 | 0.00 | 0.00 | 58 | 1007.0 |
| 20260505000144 | 60 | 166 | 8.7 | 13.9 | 0.00 | 0.00 | 0.00 | 59 | 1006.6 |
| 20260504234636 | 61 | 127 | 9.6 | 14.8 | 0.00 | 0.00 | 0.00 | 58 | 1006.4 |
| 20260504233153 | 62 | 129 | 9.6 | 14.8 | 0.00 | 0.00 | 0.00 | 55 | 1006.1 |
| 20260504231650 | 63 | 169 | 7.8 | 17.4 | 0.00 | 0.00 | 0.00 | 51 | 1005.7 |
| 20260504230142 | 64 | 169 | 6.1 | 16.5 | 0.00 | 0.00 | 0.00 | 50 | 1005.4 |
| 20260504224634 | 64 | 200 | 7.0 | 14.8 | 0.00 | 0.00 | 0.00 | 51 | 1005.3 |
| 20260504223150 | 65 | 139 | 7.8 | 18.2 | 0.00 | 0.00 | 0.00 | 49 | 1004.9 |
| 20260504221643 | 66 | 138 | 5.2 | 9.6 | 0.00 | 0.00 | 0.00 | 48 | 1005.0 |
| 20260504220157 | 68 | 268 | 9.6 | 14.8 | 0.00 | 0.00 | 0.00 | 41 | 1005.0 |
| 20260504214650 | 70 | 184 | 8.7 | 13.9 | 0.00 | 0.00 | 0.00 | 33 | 1005.0 |
| 20260504213140 | 71 | 207 | 10.4 | 14.8 | 0.00 | 0.00 | 0.00 | 32 | 1005.1 |
| 20260504211656 | 69 | 186 | 6.1 | 12.2 | 0.00 | 0.00 | 0.00 | 41 | 1005.0 |
| 20260504210150 | 71 | 248 | 7.8 | 16.5 | 0.00 | 0.00 | 0.00 | 36 | 1005.1 |
| 20260504204646 | 72 | 173 | 7.8 | 15.6 | 0.00 | 0.00 | 0.00 | 32 | 1004.9 |
| 20260504203137 | 69 | 194 | 8.7 | 14.8 | 0.00 | 0.00 | 0.00 | 39 | 1005.0 |
| 20260504201650 | 71 | 221 | 10.4 | 17.4 | 0.00 | 0.00 | 0.00 | 30 | 1005.2 |
| 20260504200147 | 71 | 190 | 7.0 | 13.9 | 0.00 | 0.00 | 0.00 | 35 | 1005.2 |
| 20260504194643 | 71 | 238 | 4.3 | 15.6 | 0.00 | 0.00 | 0.00 | 36 | 1005.3 |
| 20260504193135 | 70 | 218 | 11.3 | 19.1 | 0.00 | 0.00 | 0.00 | 33 | 1005.3 |
| 20260504191712 | 71 | 229 | 11.3 | 18.2 | 0.00 | 0.00 | 0.00 | 29 | 1005.4 |
| 20260504190146 | 69 | 223 | 12.2 | 18.2 | 0.00 | 0.00 | 0.00 | 30 | 1005.4 |
| 20260504184635 | 69 | 237 | 10.4 | 19.1 | 0.00 | 0.00 | 0.00 | 34 | 1005.5 |
| 20260504183213 | 68 | 184 | 7.8 | 18.2 | 0.00 | 0.00 | 0.00 | 39 | 1005.6 |
| 20260504181708 | 69 | 219 | 9.6 | 16.5 | 0.00 | 0.00 | 0.00 | 33 | 1005.8 |
| 20260504180143 | 70 | 207 | 11.3 | 16.5 | 0.00 | 0.00 | 0.00 | 32 | 1005.9 |
| 20260504174656 | 68 | 244 | 6.1 | 20.9 | 0.00 | 0.00 | 0.00 | 39 | 1006.0 |
| 20260504173211 | 68 | 244 | 12.2 | 20.0 | 0.00 | 0.00 | 0.00 | 31 | 1006.0 |
| 20260504171641 | 66 | 221 | 15.6 | 23.5 | 0.00 | 0.00 | 0.00 | 37 | 1006.0 |
| 20260504170136 | 65 | 246 | 8.7 | 17.4 | 0.00 | 0.00 | 0.00 | 43 | 1006.1 |
| 20260504160152 | 67 | 232 | 11.3 | 21.7 | 0.00 | 0.00 | 0.00 | 35 | 1006.9 |
| 20260504150147 | 65 | 224 | 11.3 | 20.0 | 0.00 | 0.00 | 0.00 | 35 | 1007.6 |
| 20260504140145 | 63 | 194 | 6.1 | 13.9 | 0.00 | 0.00 | 0.00 | 38 | 1008.1 |
| 20260504130139 | 59 | 221 | 7.0 | 15.6 | 0.00 | 0.00 | 0.00 | 43 | 1008.6 |
| 20260504120156 | 53 | 220 | 2.6 | 3.5 | 0.00 | 0.00 | 0.00 | 65 | 1009.0 |
| 20260504110148 | 51 | 234 | 3.5 | 6.1 | 0.00 | 0.00 | 0.00 | 52 | 1009.3 |
| 20260504100139 | 50 | 207 | 3.5 | 6.1 | 0.00 | 0.00 | 0.00 | 53 | 1009.2 |
| 20260504090133 | 50 | 209 | 5.2 | 9.6 | 0.00 | 0.00 | 0.00 | 50 | 1009.0 |
| 20260504081633 | 50 | 215 | 2.6 | 6.1 | 0.00 | 0.00 | 0.00 | 50 | 1009.0 |